QPF
0.00 0.00 0.00 0.00 0.00 0.00 0.00 0.00 0.00 0.00 0.00 0.00 0.00 0.00 0.00 0.00 0.00 0.00 0.00 0.00 0.00 0.00 0.00 0.00 0.00 0.00 0.00 0.00 0.00 0.00 0.00 0.00 0.00 0.00 0.00 0.00 0.00 0.00 0.00 0.00 0.00 0.00 0.00
0.00 0.00 0.00 0.00 0.00 0.00 0.00 0.00 0.00 0.00 0.00 0.00 0.00 0.00 0.00 0.00 0.00 0.00 0.00 0.00 0.00 0.00 0.00 0.00 0.00 0.00 0.00 0.00 0.00 0.00 0.00 0.00 0.00 0.00 0.00 0.00 0.00 0.00 0.00 0.00 0.00 0.00 0.00
0.00 0.00 0.00 0.00 0.00 0.00 0.00 0.00 0.00 0.00 0.00 0.00 0.00 0.00 0.00 0.00 0.00 0.00 0.00 0.00 0.00 0.00 0.00 0.00 0.00 0.00 0.00 0.00 0.00 0.00 0.00 0.00 0.00 0.00 0.00 0.00 0.00 0.00 0.00 0.00 0.00 0.00 0.00
0.00 0.00 0.00 0.00 0.00 0.00 0.00 0.00 0.00 0.00 0.00 0.00 0.00 0.00 0.00 0.00 0.00 0.00 0.00 0.00 0.00 0.00 0.00 0.00 0.00 0.00 0.00 0.00 0.00 0.00 0.00 0.00 0.00 0.00 0.00 0.00 0.00 0.00 0.00 0.00 0.00 0.00 0.00
0.00 0.00 0.00 0.00 0.00 0.00 0.00 0.00 0.00 0.00 0.00 0.00 0.00 0.00 0.00 0.00 0.00 0.00 0.00 0.00 0.00 0.00 0.00 0.00 0.00 0.00 0.00 0.00 0.00 0.00 0.00 0.00 0.00 0.00 0.00 0.00 0.00 0.01 0.01 0.00 0.00 0.00 0.00
0.00 0.00 0.00 0.00 0.00 0.00 0.00 0.00 0.00 0.00 0.00 0.00 0.00 0.00 0.00 0.00 0.00 0.00 0.00 0.00 0.00 0.00 0.00 0.00 0.00 0.00 0.00 0.00 0.00 0.00 0.00 0.00 0.00 0.00 0.00 0.00 0.01 0.01 0.01 0.01 0.01 0.01 0.01
0.00 0.00 0.00 0.00 0.00 0.00 0.00 0.00 0.00 0.00 0.00 0.00 0.00 0.00 0.00 0.00 0.00 0.00 0.00 0.00 0.00 0.00 0.00 0.00 0.00 0.00 0.00 0.00 0.00 0.00 0.00 0.00 0.00 0.00 0.00 0.00 0.01 0.01 0.01 0.01 0.01 0.01 0.01
0.00 0.00 0.00 0.00 0.00 0.00 0.00 0.00 0.00 0.00 0.00 0.00 0.00 0.00 0.00 0.00 0.00 0.00 0.00 0.00 0.00 0.00 0.00 0.00 0.00 0.00 0.00 0.00 0.00 0.00 0.00 0.00 0.00 0.00 0.00 0.00 0.01 0.01 0.01 0.01 0.02 0.02 0.02
0.00 0.00 0.00 0.00 0.00 0.00 0.00 0.00 0.00 0.00 0.00 0.00 0.00 0.00 0.00 0.00 0.00 0.00 0.00 0.00 0.00 0.00 0.00 0.00 0.00 0.00 0.00 0.00 0.00 0.00 0.00 0.00 0.00 0.00 0.00 0.00 0.00 0.01 0.01 0.02 0.02 0.02 0.03
0.00 0.00 0.00 0.00 0.00 0.00 0.00 0.00 0.00 0.00 0.00 0.00 0.00 0.00 0.00 0.00 0.00 0.00 0.00 0.00 0.00 0.00 0.00 0.00 0.00 0.00 0.00 0.00 0.00 0.00 0.00 0.00 0.00 0.00 0.00 0.00 0.00 0.01 0.02 0.02 0.03 0.03 0.03
0.00 0.00 0.00 0.00 0.00 0.00 0.00 0.00 0.00 0.00 0.00 0.00 0.00 0.00 0.00 0.00 0.00 0.00 0.00 0.00 0.00 0.00 0.00 0.00 0.00 0.00 0.00 0.00 0.00 0.00 0.00 0.00 0.00 0.00 0.00 0.00 0.00 0.01 0.01 0.02 0.03 0.04 0.04
0.00 0.00 0.00 0.00 0.00 0.00 0.00 0.00 0.00 0.00 0.00 0.00 0.00 0.00 0.00 0.00 0.00 0.00 0.00 0.00 0.00 0.00 0.00 0.00 0.00 0.00 0.00 0.00 0.00 0.00 0.00 0.00 0.00 0.00 0.00 0.00 0.00 0.00 0.01 0.02 0.03 0.04 0.05
0.00 0.00 0.00 0.00 0.00 0.00 0.00 0.00 0.00 0.00 0.00 0.00 0.00 0.00 0.00 0.00 0.00 0.00 0.00 0.00 0.00 0.00 0.00 0.00 0.00 0.00 0.00 0.00 0.00 0.00 0.00 0.00 0.00 0.00 0.00 0.00 0.00 0.00 0.00 0.01 0.01 0.03 0.05
0.00 0.00 0.00 0.00 0.00 0.00 0.00 0.00 0.00 0.00 0.00 0.00 0.00 0.00 0.00 0.00 0.00 0.00 0.00 0.00 0.00 0.00 0.00 0.00 0.00 0.00 0.00 0.00 0.00 0.00 0.00 0.00 0.00 0.00 0.00 0.00 0.00 0.00 0.00 0.00 0.01 0.01 0.03
0.00 0.00 0.00 0.00 0.00 0.00 0.00 0.00 0.00 0.00 0.00 0.00 0.00 0.00 0.00 0.00 0.00 0.00 0.00 0.00 0.00 0.00 0.00 0.00 0.00 0.00 0.00 0.00 0.00 0.00 0.00 0.00 0.00 0.00 0.00 0.00 0.00 0.00 0.00 0.00 0.00 0.01 0.01
0.00 0.00 0.00 0.00 0.00 0.00 0.00 0.00 0.00 0.00 0.00 0.00 0.00 0.00 0.00 0.00 0.00 0.00 0.00 0.00 0.00 0.01 0.00 0.00 0.00 0.00 0.00 0.00 0.00 0.00 0.00 0.00 0.00 0.00 0.00 0.00 0.00 0.00 0.00 0.01 0.01 0.01 0.01
0.00 0.00 0.00 0.00 0.00 0.00 0.00 0.00 0.00 0.00 0.00 0.00 0.00 0.00 0.00 0.00 0.00 0.00 0.00 0.00 0.00 0.00 0.01 0.00 0.00 0.00 0.00 0.00 0.00 0.00 0.00 0.00 0.00 0.00 0.00 0.00 0.00 0.00 0.01 0.01 0.01 0.01 0.02
0.00 0.00 0.00 0.00 0.00 0.00 0.00 0.00 0.00 0.00 0.00 0.00 0.00 0.00 0.00 0.00 0.00 0.00 0.00 0.00 0.00 0.00 0.01 0.01 0.00 0.00 0.00 0.00 0.00 0.00 0.00 0.00 0.00 0.00 0.00 0.01 0.01 0.01 0.01 0.01 0.01 0.02 0.02
0.00 0.00 0.00 0.00 0.00 0.00 0.00 0.00 0.00 0.00 0.00 0.00 0.00 0.00 0.00 0.00 0.00 0.00 0.00 0.00 0.00 0.01 0.01 0.01 0.01 0.00 0.00 0.00 0.00 0.00 0.00 0.00 0.00 0.00 0.00 0.00 0.01 0.01 0.02 0.02 0.02 0.02 0.02
0.00 0.00 0.00 0.00 0.00 0.00 0.00 0.00 0.00 0.00 0.00 0.00 0.00 0.00 0.00 0.00 0.00 0.01 0.01 0.01 0.01 0.01 0.02 0.02 0.02 0.01 0.01 0.01 0.01 0.01 0.00 0.00 0.00 0.00 0.00 0.00 0.00 0.01 0.01 0.01 0.02 0.02 0.03
0.00 0.00 0.00 0.00 0.00 0.00 0.00 0.00 0.00 0.00 0.00 0.00 0.00 0.00 0.01 0.01 0.02 0.02 0.02 0.02 0.03 0.04 0.04 0.05 0.05 0.03 0.02 0.02 0.01 0.01 0.01 0.01 0.01 0.00 0.00 0.00 0.00 0.00 0.00 0.01 0.01 0.02 0.02
0.00 0.00 0.00 0.00 0.00 0.00 0.00 0.00 0.01 0.01 0.01 0.01 0.01 0.01 0.01 0.01 0.02 0.03 0.04 0.04 0.05 0.06 0.06 0.07 0.07 0.06 0.04 0.02 0.02 0.03 0.03 0.03 0.02 0.01 0.00 0.00 0.00 0.00 0.00 0.00 0.00 0.01 0.01
0.00 0.00 0.00 0.00 0.00 0.00 0.00 0.00 0.01 0.01 0.01 0.01 0.01 0.01 0.01 0.01 0.01 0.01 0.02 0.02 0.02 0.03 0.05 0.06 0.08 0.06 0.04 0.03 0.04 0.06 0.05 0.04 0.03 0.01 0.02 0.01 0.00 0.00 0.00 0.00 0.00 0.00 0.01
0.00 0.00 0.00 0.00 0.00 0.00 0.00 0.00 0.01 0.01 0.01 0.00 0.00 0.01 0.01 0.01 0.01 0.01 0.01 0.01 0.01 0.01 0.01 0.03 0.03 0.03 0.02 0.03 0.04 0.05 0.05 0.05 0.04 0.02 0.02 0.03 0.01 0.00 0.00 0.00 0.00 0.00 0.00
0.00 0.00 0.00 0.00 0.00 0.00 0.00 0.00 0.01 0.01 0.01 0.00 0.00 0.00 0.01 0.01 0.01 0.03 0.03 0.03 0.02 0.02 0.01 0.02 0.03 0.03 0.04 0.05 0.07 0.09 0.11 0.11 0.09 0.03 0.01 0.02 0.01 0.00 0.00 0.00 0.00 0.00 0.00
0.00 0.00 0.00 0.00 0.00 0.00 0.00 0.00 0.01 0.01 0.01 0.01 0.01 0.01 0.01 0.02 0.02 0.04 0.04 0.04 0.04 0.02 0.02 0.02 0.02 0.02 0.02 0.02 0.04 0.06 0.08 0.10 0.09 0.06 0.02 0.01 0.01 0.02 0.02 0.00 0.00 0.00 0.00
MSLP
1021.28 1021.48 1021.62 1021.68 1021.70 1021.69 1021.67 1021.66 1021.66 1021.68 1021.69 1021.69 1021.68 1021.65 1021.61 1021.57 1021.54 1021.52 1021.52 1021.52 1021.51 1021.49 1021.44 1021.35 1021.24 1021.11 1020.97 1020.86 1020.77 1020.71 1020.70 1020.73 1020.79 1020.88 1021.00 1021.14 1021.30 1021.47 1021.64 1021.82 1021.97 1022.10 1022.20
1020.98 1021.15 1021.26 1021.32 1021.33 1021.31 1021.28 1021.26 1021.24 1021.24 1021.23 1021.21 1021.18 1021.12 1021.06 1020.98 1020.91 1020.86 1020.81 1020.79 1020.77 1020.74 1020.70 1020.64 1020.55 1020.44 1020.31 1020.19 1020.08 1019.99 1019.94 1019.94 1019.98 1020.07 1020.20 1020.38 1020.58 1020.81 1021.05 1021.28 1021.48 1021.66 1021.79
1020.64 1020.79 1020.89 1020.94 1020.96 1020.96 1020.94 1020.93 1020.92 1020.91 1020.89 1020.86 1020.79 1020.70 1020.59 1020.46 1020.32 1020.20 1020.10 1020.02 1019.96 1019.92 1019.88 1019.84 1019.78 1019.70 1019.60 1019.48 1019.37 1019.27 1019.19 1019.15 1019.17 1019.24 1019.37 1019.55 1019.78 1020.04 1020.32 1020.59 1020.84 1021.05 1021.22
1020.30 1020.43 1020.53 1020.60 1020.64 1020.66 1020.68 1020.69 1020.69 1020.69 1020.67 1020.61 1020.52 1020.38 1020.21 1020.00 1019.78 1019.57 1019.38 1019.23 1019.12 1019.05 1019.01 1018.98 1018.95 1018.91 1018.85 1018.77 1018.67 1018.56 1018.46 1018.39 1018.37 1018.41 1018.51 1018.68 1018.90 1019.16 1019.45 1019.74 1020.01 1020.25 1020.46
1020.00 1020.11 1020.21 1020.29 1020.36 1020.42 1020.46 1020.50 1020.53 1020.53 1020.51 1020.44 1020.31 1020.13 1019.89 1019.60 1019.29 1018.98 1018.70 1018.46 1018.28 1018.17 1018.11 1018.09 1018.10 1018.10 1018.08 1018.03 1017.96 1017.85 1017.74 1017.64 1017.58 1017.57 1017.63 1017.75 1017.94 1018.17 1018.44 1018.72 1019.00 1019.27 1019.51
1019.76 1019.85 1019.94 1020.03 1020.12 1020.20 1020.27 1020.32 1020.36 1020.37 1020.34 1020.26 1020.11 1019.88 1019.59 1019.23 1018.84 1018.44 1018.07 1017.74 1017.50 1017.33 1017.24 1017.22 1017.24 1017.28 1017.30 1017.28 1017.23 1017.14 1017.02 1016.89 1016.79 1016.72 1016.72 1016.78 1016.90 1017.09 1017.31 1017.57 1017.84 1018.11 1018.37
1019.59 1019.64 1019.71 1019.80 1019.88 1019.97 1020.04 1020.10 1020.14 1020.15 1020.11 1020.01 1019.84 1019.59 1019.26 1018.86 1018.41 1017.94 1017.49 1017.10 1016.78 1016.56 1016.44 1016.40 1016.42 1016.46 1016.50 1016.51 1016.47 1016.39 1016.26 1016.11 1015.97 1015.85 1015.78 1015.77 1015.82 1015.94 1016.11 1016.32 1016.56 1016.83 1017.11
1019.47 1019.47 1019.51 1019.57 1019.63 1019.70 1019.75 1019.80 1019.82 1019.81 1019.76 1019.66 1019.48 1019.23 1018.89 1018.47 1017.99 1017.49 1016.99 1016.54 1016.17 1015.90 1015.72 1015.65 1015.64 1015.67 1015.71 1015.72 1015.68 1015.59 1015.46 1015.29 1015.11 1014.95 1014.82 1014.75 1014.74 1014.79 1014.89 1015.05 1015.25 1015.50 1015.78
1019.36 1019.32 1019.31 1019.32 1019.34 1019.37 1019.38 1019.39 1019.38 1019.35 1019.29 1019.18 1019.01 1018.77 1018.45 1018.05 1017.58 1017.07 1016.56 1016.08 1015.67 1015.34 1015.12 1014.98 1014.92 1014.91 1014.92 1014.91 1014.85 1014.76 1014.61 1014.43 1014.23 1014.04 1013.88 1013.76 1013.69 1013.68 1013.73 1013.83 1013.99 1014.20 1014.46
1019.26 1019.16 1019.09 1019.05 1019.02 1018.98 1018.95 1018.90 1018.85 1018.79 1018.71 1018.60 1018.45 1018.24 1017.95 1017.59 1017.17 1016.69 1016.19 1015.70 1015.26 1014.89 1014.60 1014.40 1014.27 1014.20 1014.15 1014.09 1014.01 1013.90 1013.74 1013.56 1013.36 1013.16 1012.98 1012.83 1012.73 1012.68 1012.68 1012.73 1012.84 1013.01 1013.23
1019.13 1018.98 1018.87 1018.77 1018.68 1018.58 1018.48 1018.38 1018.28 1018.18 1018.08 1017.97 1017.84 1017.66 1017.43 1017.12 1016.75 1016.31 1015.84 1015.36 1014.91 1014.50 1014.15 1013.88 1013.68 1013.53 1013.41 1013.30 1013.18 1013.04 1012.88 1012.70 1012.51 1012.32 1012.15 1012.00 1011.89 1011.81 1011.77 1011.78 1011.84 1011.96 1012.13
1018.99 1018.81 1018.65 1018.50 1018.35 1018.19 1018.03 1017.87 1017.72 1017.58 1017.45 1017.34 1017.22 1017.07 1016.88 1016.63 1016.31 1015.92 1015.49 1015.03 1014.57 1014.13 1013.74 1013.41 1013.13 1012.91 1012.71 1012.55 1012.38 1012.22 1012.06 1011.89 1011.72 1011.56 1011.41 1011.28 1011.16 1011.08 1011.01 1010.99 1011.00 1011.05 1011.16
1018.85 1018.64 1018.45 1018.26 1018.06 1017.85 1017.63 1017.41 1017.21 1017.03 1016.87 1016.74 1016.62 1016.49 1016.32 1016.11 1015.83 1015.49 1015.09 1014.66 1014.20 1013.76 1013.33 1012.95 1012.62 1012.33 1012.07 1011.85 1011.65 1011.47 1011.30 1011.14 1010.99 1010.86 1010.74 1010.63 1010.53 1010.44 1010.37 1010.31 1010.27 1010.27 1010.32
1018.73 1018.50 1018.28 1018.06 1017.81 1017.56 1017.29 1017.02 1016.77 1016.55 1016.36 1016.20 1016.06 1015.92 1015.76 1015.56 1015.31 1014.99 1014.62 1014.21 1013.77 1013.33 1012.89 1012.49 1012.12 1011.78 1011.48 1011.22 1010.99 1010.79 1010.61 1010.46 1010.33 1010.22 1010.12 1010.03 1009.95 1009.86 1009.77 1009.68 1009.61 1009.56 1009.55
1018.63 1018.39 1018.15 1017.89 1017.61 1017.31 1017.01 1016.70 1016.40 1016.14 1015.91 1015.71 1015.53 1015.36 1015.18 1014.97 1014.72 1014.41 1014.06 1013.67 1013.25 1012.82 1012.40 1011.99 1011.61 1011.26 1010.93 1010.65 1010.39 1010.17 1009.98 1009.83 1009.70 1009.60 1009.52 1009.44 1009.36 1009.27 1009.17 1009.06 1008.96 1008.87 1008.81
1018.56 1018.30 1018.02 1017.73 1017.42 1017.09 1016.74 1016.40 1016.07 1015.76 1015.49 1015.25 1015.03 1014.81 1014.59 1014.35 1014.08 1013.76 1013.41 1013.04 1012.64 1012.24 1011.84 1011.46 1011.09 1010.74 1010.41 1010.11 1009.84 1009.60 1009.40 1009.23 1009.09 1008.98 1008.89 1008.80 1008.72 1008.62 1008.51 1008.39 1008.27 1008.16 1008.07
1018.48 1018.19 1017.88 1017.55 1017.20 1016.83 1016.46 1016.09 1015.73 1015.39 1015.09 1014.80 1014.53 1014.26 1013.99 1013.70 1013.38 1013.05 1012.69 1012.33 1011.95 1011.58 1011.22 1010.87 1010.53 1010.20 1009.88 1009.58 1009.30 1009.04 1008.81 1008.61 1008.45 1008.32 1008.20 1008.10 1008.00 1007.89 1007.77 1007.65 1007.52 1007.40 1007.31
1018.38 1018.04 1017.69 1017.31 1016.92 1016.52 1016.12 1015.73 1015.36 1015.00 1014.66 1014.33 1014.02 1013.69 1013.36 1013.02 1012.66 1012.29 1011.92 1011.55 1011.20 1010.85 1010.53 1010.21 1009.90 1009.60 1009.30 1009.01 1008.72 1008.45 1008.19 1007.97 1007.77 1007.60 1007.46 1007.33 1007.21 1007.09 1006.97 1006.84 1006.72 1006.61 1006.53
1018.22 1017.83 1017.42 1017.00 1016.57 1016.15 1015.72 1015.32 1014.93 1014.56 1014.20 1013.85 1013.49 1013.12 1012.73 1012.33 1011.93 1011.52 1011.12 1010.74 1010.39 1010.07 1009.77 1009.48 1009.21 1008.93 1008.65 1008.36 1008.07 1007.79 1007.51 1007.26 1007.03 1006.84 1006.67 1006.52 1006.38 1006.25 1006.12 1006.00 1005.90 1005.81 1005.75
1017.99 1017.55 1017.09 1016.62 1016.16 1015.70 1015.26 1014.85 1014.45 1014.08 1013.71 1013.33 1012.94 1012.53 1012.10 1011.65 1011.19 1010.73 1010.30 1009.90 1009.54 1009.22 1008.94 1008.67 1008.42 1008.16 1007.90 1007.62 1007.33 1007.04 1006.76 1006.49 1006.24 1006.03 1005.84 1005.68 1005.54 1005.41 1005.29 1005.19 1005.10 1005.03 1005.00
1017.69 1017.20 1016.70 1016.20 1015.70 1015.22 1014.77 1014.34 1013.94 1013.56 1013.18 1012.79 1012.37 1011.93 1011.45 1010.95 1010.45 1009.95 1009.47 1009.04 1008.66 1008.33 1008.04 1007.78 1007.53 1007.29 1007.03 1006.77 1006.48 1006.20 1005.92 1005.65 1005.41 1005.20 1005.02 1004.86 1004.73 1004.61 1004.51 1004.42 1004.35 1004.30 1004.29
1017.34 1016.83 1016.29 1015.75 1015.23 1014.73 1014.26 1013.82 1013.41 1013.02 1012.63 1012.22 1011.78 1011.31 1010.80 1010.25 1009.70 1009.16 1008.64 1008.17 1007.75 1007.39 1007.08 1006.80 1006.55 1006.31 1006.06 1005.80 1005.54 1005.27 1005.01 1004.77 1004.55 1004.36 1004.21 1004.08 1003.97 1003.88 1003.80 1003.73 1003.67 1003.64 1003.63
1016.98 1016.44 1015.89 1015.32 1014.77 1014.25 1013.76 1013.30 1012.88 1012.47 1012.06 1011.63 1011.17 1010.67 1010.13 1009.55 1008.95 1008.37 1007.80 1007.29 1006.83 1006.43 1006.09 1005.79 1005.51 1005.26 1005.01 1004.76 1004.51 1004.27 1004.04 1003.84 1003.67 1003.53 1003.42 1003.34 1003.27 1003.21 1003.16 1003.11 1003.07 1003.04 1003.03
1016.61 1016.07 1015.49 1014.91 1014.34 1013.79 1013.27 1012.79 1012.34 1011.91 1011.48 1011.03 1010.54 1010.02 1009.45 1008.84 1008.22 1007.60 1007.00 1006.44 1005.94 1005.49 1005.11 1004.77 1004.46 1004.19 1003.93 1003.68 1003.45 1003.23 1003.05 1002.89 1002.77 1002.69 1002.65 1002.62 1002.60 1002.60 1002.58 1002.56 1002.53 1002.51 1002.50
1016.24 1015.69 1015.11 1014.51 1013.92 1013.34 1012.79 1012.27 1011.79 1011.33 1010.87 1010.40 1009.90 1009.36 1008.77 1008.16 1007.51 1006.87 1006.24 1005.66 1005.12 1004.63 1004.20 1003.81 1003.47 1003.16 1002.88 1002.63 1002.40 1002.21 1002.05 1001.94 1001.88 1001.86 1001.87 1001.91 1001.96 1002.00 1002.03 1002.04 1002.04 1002.03 1002.01
1015.85 1015.30 1014.71 1014.09 1013.47 1012.86 1012.27 1011.73 1011.21 1010.73 1010.25 1009.77 1009.26 1008.72 1008.14 1007.52 1006.88 1006.23 1005.60 1004.99 1004.42 1003.89 1003.41 1002.98 1002.60 1002.24 1001.93 1001.65 1001.42 1001.23 1001.09 1001.01 1000.99 1001.02 1001.10 1001.19 1001.30 1001.40 1001.48 1001.54 1001.57 1001.58 1001.58
Thickness
5645 5642 5640 5638 5636 5634 5633 5631 5630 5629 5628 5628 5628 5627 5627 5627 5627 5627 5626 5626 5625 5624 5624 5625 5625 5625 5625 5625 5625 5624 5624 5623 5622 5621 5620 5620 5619 5618 5618 5617 5617 5616 5616
5640 5637 5635 5633 5631 5629 5627 5626 5624 5623 5623 5622 5622 5622 5622 5622 5622 5622 5622 5621 5621 5620 5619 5619 5619 5619 5619 5619 5619 5619 5619 5618 5617 5616 5615 5614 5614 5613 5612 5611 5610 5610 5609
5635 5632 5630 5627 5625 5623 5622 5620 5619 5617 5617 5616 5616 5616 5616 5616 5617 5617 5617 5617 5617 5616 5615 5613 5613 5613 5613 5613 5613 5613 5613 5613 5612 5611 5610 5609 5608 5607 5606 5605 5604 5603 5602
5630 5627 5625 5622 5620 5618 5616 5614 5612 5610 5609 5609 5609 5610 5611 5611 5612 5612 5612 5612 5612 5611 5611 5609 5608 5607 5607 5607 5607 5607 5607 5606 5606 5605 5604 5603 5602 5601 5600 5599 5598 5597 5596
5625 5622 5620 5617 5614 5613 5611 5609 5607 5604 5603 5602 5602 5604 5605 5606 5606 5607 5607 5607 5607 5607 5606 5604 5602 5601 5600 5599 5599 5600 5600 5599 5599 5599 5598 5597 5596 5595 5594 5592 5591 5590 5589
5620 5617 5614 5611 5608 5606 5604 5602 5600 5598 5596 5595 5595 5598 5599 5600 5600 5601 5603 5603 5603 5602 5600 5598 5596 5594 5592 5591 5590 5590 5591 5591 5591 5591 5591 5590 5590 5589 5588 5586 5585 5583 5582
5614 5611 5608 5605 5602 5599 5597 5595 5593 5591 5589 5587 5585 5587 5592 5594 5597 5598 5599 5599 5598 5596 5594 5591 5589 5587 5585 5582 5581 5580 5580 5581 5582 5582 5582 5582 5582 5581 5581 5580 5578 5577 5575
5607 5604 5601 5598 5595 5592 5590 5587 5585 5582 5581 5578 5573 5570 5574 5583 5591 5595 5594 5592 5591 5589 5587 5584 5581 5579 5577 5574 5572 5569 5568 5569 5570 5571 5572 5573 5573 5573 5573 5572 5571 5570 5568
5600 5597 5594 5591 5588 5585 5582 5579 5576 5573 5571 5569 5565 5558 5555 5561 5571 5581 5583 5582 5581 5579 5577 5575 5572 5569 5566 5564 5562 5559 5557 5556 5556 5557 5559 5561 5562 5563 5563 5563 5562 5562 5560
5593 5590 5587 5583 5580 5576 5574 5571 5569 5565 5561 5559 5556 5553 5551 5549 5546 5555 5565 5567 5565 5562 5560 5560 5559 5557 5555 5552 5550 5547 5544 5542 5541 5542 5543 5545 5548 5550 5551 5552 5552 5552 5551
5586 5582 5579 5575 5572 5568 5565 5562 5559 5556 5552 5549 5545 5542 5540 5537 5535 5532 5542 5545 5546 5546 5544 5542 5541 5540 5539 5537 5536 5532 5529 5526 5525 5525 5526 5527 5530 5533 5536 5538 5540 5540 5540
5576 5574 5570 5567 5563 5560 5556 5553 5550 5547 5543 5539 5535 5531 5526 5522 5519 5516 5520 5525 5526 5528 5526 5524 5521 5519 5518 5517 5517 5515 5512 5510 5508 5507 5507 5508 5510 5512 5516 5520 5523 5526 5527
5566 5563 5560 5557 5553 5550 5547 5543 5540 5536 5532 5528 5524 5520 5515 5512 5507 5502 5500 5504 5505 5508 5505 5503 5499 5496 5493 5492 5492 5492 5492 5490 5488 5487 5486 5487 5488 5491 5494 5498 5503 5507 5511
5556 5554 5550 5547 5543 5540 5536 5532 5529 5525 5520 5516 5512 5507 5502 5498 5492 5485 5480 5477 5481 5488 5485 5484 5477 5472 5468 5466 5466 5466 5468 5467 5466 5465 5464 5465 5466 5469 5473 5476 5481 5486 5491
5547 5544 5540 5536 5533 5529 5525 5521 5517 5512 5508 5503 5498 5492 5487 5482 5475 5469 5462 5455 5449 5457 5471 5467 5455 5450 5444 5441 5440 5439 5441 5442 5441 5441 5441 5442 5444 5447 5451 5455 5460 5465 5469
5537 5533 5529 5525 5521 5517 5513 5508 5504 5499 5494 5489 5482 5476 5471 5465 5458 5451 5444 5438 5430 5427 5440 5449 5436 5429 5423 5421 5418 5417 5418 5418 5419 5420 5420 5421 5424 5427 5432 5436 5441 5445 5450
5525 5521 5517 5513 5509 5504 5499 5494 5489 5483 5478 5472 5465 5458 5452 5445 5439 5433 5426 5420 5414 5407 5411 5428 5419 5412 5406 5403 5402 5400 5400 5400 5401 5401 5402 5403 5406 5409 5414 5418 5423 5427 5432
5514 5509 5505 5500 5496 5491 5485 5479 5473 5467 5460 5453 5446 5439 5433 5426 5420 5414 5408 5404 5399 5393 5390 5400 5404 5396 5392 5388 5387 5387 5387 5386 5387 5387 5387 5389 5391 5394 5398 5402 5406 5411 5415
5502 5497 5492 5487 5482 5476 5470 5463 5457 5450 5442 5435 5427 5420 5414 5407 5403 5397 5392 5388 5384 5381 5377 5379 5387 5383 5380 5376 5375 5375 5375 5374 5374 5374 5375 5377 5379 5381 5385 5388 5392 5396 5401
5490 5485 5479 5474 5468 5462 5455 5448 5441 5434 5427 5419 5411 5404 5398 5391 5387 5383 5380 5376 5372 5369 5367 5366 5371 5372 5369 5367 5363 5363 5364 5363 5363 5364 5365 5366 5368 5371 5374 5377 5381 5384 5388
5478 5472 5467 5461 5454 5447 5441 5433 5426 5420 5412 5405 5398 5391 5385 5380 5377 5373 5371 5368 5364 5361 5359 5359 5360 5361 5360 5356 5354 5353 5353 5354 5355 5354 5354 5356 5358 5360 5363 5366 5369 5372 5376
5465 5459 5453 5447 5441 5434 5426 5419 5412 5405 5398 5391 5385 5380 5374 5370 5367 5365 5363 5361 5358 5354 5352 5350 5351 5351 5351 5348 5346 5344 5343 5344 5347 5347 5345 5349 5349 5351 5353 5355 5358 5361 5366
5453 5447 5440 5433 5426 5419 5411 5405 5398 5392 5385 5378 5372 5368 5364 5361 5357 5354 5353 5352 5349 5347 5345 5343 5342 5343 5342 5340 5337 5337 5336 5336 5339 5339 5336 5341 5341 5343 5345 5347 5350 5353 5356
5440 5433 5426 5419 5412 5405 5397 5391 5385 5380 5373 5367 5361 5356 5353 5350 5347 5345 5344 5343 5342 5340 5337 5335 5335 5335 5335 5334 5331 5331 5332 5332 5333 5332 5330 5333 5335 5336 5338 5340 5343 5345 5348
5427 5420 5413 5405 5398 5392 5384 5378 5372 5367 5362 5357 5351 5347 5343 5341 5340 5338 5337 5336 5336 5335 5333 5333 5333 5333 5332 5332 5330 5328 5327 5327 5329 5329 5327 5326 5329 5329 5331 5333 5336 5338 5340
5415 5408 5401 5392 5385 5378 5372 5366 5360 5355 5351 5347 5343 5338 5335 5333 5333 5332 5329 5328 5328 5329 5328 5328 5327 5327 5326 5325 5325 5322 5321 5320 5322 5323 5323 5321 5321 5319 5322 5327 5328 5330 5332